{"data":{"norad_id":66445,"epoch":"2026-09-20T23:23:16.541664Z","epoch_age_seconds":52375,"freshness":"FRESH","line1":"1 66445U 25259Z   26263.97449701  .00008413  00000+0  31488-3 0  9990","line2":"2 66445  43.0004 251.8168 0001198 252.1289 107.9432 15.27581494 49248","mean_motion":15.27581494,"eccentricity":0.0001198,"inclination_deg":43.0004,"raan_deg":251.8168,"arg_perigee_deg":252.1289,"mean_anomaly_deg":107.9432,"bstar":0.00031488,"rev_number":4924,"period_min":94.26665651921,"perigee_km":482.22265291146,"apogee_km":483.86659202821,"semimajor_km":6861.1816224698,"source":"CELESTRAK","updated_at":"2026-09-21T09:00:35.910883Z"}}